#timestamp,LO_Frequency,Hit,StdDev 
1683471615.5,286047001.6,N
1683471635.3,286047001.9,N
1683471655.2,286047001.6,N
1683471675.9,286047002.4,N
1683471695.7,286047002.3,N
1683471715.6,286047002.7,N
1683471735.4,286047002.4,N
1683471755.3,286046999.7,N
1683471775.1,286047000.2,N
1683471776.0,286047000.2,N
1683471795.8,286047001.0,N
1683471815.7,286047000.7,N
1683471835.5,286047000.1,N
1683471855.4,286046999.9,N
1683471875.2,286046999.9,N
1683471895.0,286046999.8,N
1683471895.9,286046999.8,N
1683471915.8,286047000.2,N
1683471935.6,286047002.3,N
1683471955.4,286047002.4,N
1683471975.3,286047002.5,N
1683471995.1,286047000.2,N
1683472015.9,286046999.8,N
1683472035.7,286046999.8,N
1683472055.5,286047000.0,N
1683472075.4,286047000.9,N
1683472095.2,286047000.7,N
1683472115.0,286047000.5,N
1683472116.0,286047000.5,N
1683472135.8,286047000.0,N
1683472155.6,286047000.2,N
1683472175.5,286047000.6,N
1683472195.3,286047001.0,N
1683472215.1,286046999.8,N
1683472235.9,286047002.7,N
1683472255.7,286047002.8,N
1683472275.6,286047002.0,N
1683472295.4,286047002.2,N
1683472315.2,286047001.3,N
1683472335.1,286047001.3,N
1683472336.0,286047001.3,N
1683472355.8,286047003.3,Y
1683472375.7,286047001.4,P
1683472395.5,286047002.4,P
1683472415.3,286046999.7,N
1683472435.2,286047002.7,N
1683472455.0,286046999.8,N
1683472455.9,286046999.8,N
1683472475.7,286047002.3,N
1683472495.6,286046999.7,N
1683472515.4,286047002.3,N
1683472535.3,286047001.9,N
1683472555.1,286047002.3,N
1683472575.8,286047001.6,N
1683472595.7,286047004.3,Y
1683472615.5,286047002.7,P
1683472635.4,286047000.0,N
1683472655.2,286047002.3,N
1683472675.0,286047000.7,N
1683472675.9,286047000.7,N
1683472695.8,286047000.0,N
1683472715.6,286047000.7,N
1683472735.5,286047000.1,N
1683472755.3,286047000.2,N
1683472775.1,286047000.3,N
1683472795.9,286047000.0,N
1683472815.7,286047000.3,N
1683472835.5,286047000.4,N
1683472855.4,286047000.9,N
1683472875.2,286046999.7,N
1683472895.1,286046999.7,N
1683472896.0,286046999.7,N
1683472915.8,286047000.9,N
1683472935.6,286047000.5,N
1683472955.5,286046998.2,N
1683472975.3,286046998.5,N
1683472995.2,286046998.2,N
1683473015.9,286047000.8,N
1683473035.7,286047000.8,N
1683473055.6,286047000.8,N
1683473075.4,286046998.6,N
1683473095.2,286047001.2,N
1683473115.1,286046998.3,N
1683473116.0,286046998.3,N
1683473135.8,286046998.9,N
1683473155.7,286046998.5,N
1683473175.5,286046998.6,N
1683473195.3,286047001.2,N
1683473215.2,286046998.6,N
1683473235.0,286046998.1,N
1683473235.9,286046998.1,N
1683473255.8,286047001.0,N
1683473275.6,286047000.8,N
1683473295.4,286047000.0,N
1683473315.3,286047000.6,N
1683473335.1,286047000.0,N
1683473355.8,286047001.0,N
1683473375.7,286047000.2,N
1683473395.5,286047000.5,N
1683473415.4,286047000.6,N
1683473435.2,286047000.2,N
1683473455.0,286047002.4,N
1683473455.9,286047002.4,N
1683473475.8,286047002.0,N
1683473495.6,286047002.7,N
1683473515.5,286047002.8,N
1683473535.3,286047000.0,N
1683473555.1,286047000.1,N
1683473575.9,286047000.5,N
1683473595.7,286047000.6,N
1683473615.6,286047000.4,N
1683473635.4,286047000.8,N
1683473655.2,286046998.2,N
1683473675.1,286047001.2,N
1683473676.0,286047001.2,N
1683473695.8,286047000.8,N
1683473715.7,286047000.7,N
1683473735.5,286047000.8,N
1683473755.3,286046998.3,N
1683473775.2,286047000.6,N
1683473795.0,286047000.4,N
1683473795.9,286047000.4,N
1683473815.8,286046999.8,N
1683473835.6,286047002.6,N
1683473855.4,286047000.8,N
1683473875.3,286047000.9,N
1683473895.1,286047000.3,N
1683473915.8,286047000.6,N
1683473935.7,286047000.7,N
1683473955.5,286047001.0,N
1683473975.4,286047000.9,N
1683473995.2,286047000.9,N
1683474015.0,286047001.2,N
1683474015.9,286047001.2,N
1683474035.8,286046999.0,N
1683474055.6,286046999.6,N
1683474075.4,286046999.6,N
1683474095.3,286046997.0,Y
1683474115.1,286046996.7,P
1683474135.9,286046995.3,N
1683474155.7,286046995.9,N
1683474175.5,286046995.4,N
1683474195.4,286046995.0,N
1683474215.2,286046996.1,N
1683474235.0,286046995.6,N
1683474235.9,286046995.6,N
1683474255.8,286046997.1,N
1683474275.6,286046997.0,N
1683474295.5,286046996.9,N
1683474315.3,286046997.2,N
1683474335.1,286046997.3,N
1683474355.9,286046998.0,N
1683474375.7,286046997.3,N
1683474395.5,286046995.4,Y
1683474415.4,286046998.4,P
1683474435.2,286047001.2,N
1683474455.1,286047000.6,N
1683474456.0,286047000.6,N
1683474475.8,286047000.8,N
1683474495.6,286046998.2,N
1683474515.5,286047000.7,N
1683474535.3,286046999.0,N
1683474555.1,286046998.4,N
1683474575.9,286046998.5,N
1683474595.7,286046999.5,N
1683474615.6,286046999.3,N
1683474635.4,286046997.4,N
1683474655.2,286046995.7,Y
1683474675.1,286046997.1,P
1683474676.0,286046997.1,N
1683474695.8,286046996.5,P
1683474715.7,286046996.9,Y
1683474735.5,286046998.3,P
1683474755.3,286046999.5,N
1683474775.2,286046996.9,P
1683474795.0,286046998.9,N
1683474795.9,286046998.9,N
1683474815.8,286046998.4,N
1683474835.6,286046998.4,N
1683474855.4,286047001.0,N
1683474875.3,286046998.4,N
1683474895.1,286047001.1,N
1683474915.8,286047001.1,N
1683474935.7,286047000.7,N
1683474955.5,286046998.2,N
1683474975.4,286047000.5,N
1683474995.2,286046998.6,N
1683475015.0,286046998.6,N
1683475015.9,286046998.6,N
1683475035.8,286046996.6,N
1683475055.6,286046997.0,N
1683475075.4,286046996.7,N
1683475095.3,286046996.6,N
1683475115.1,286046999.5,N
1683475135.9,286046996.5,N
1683475155.7,286046996.8,N
1683475175.5,286046996.9,N
1683475225.4,286046996.5,E
